Dr. Bill's Marine Weather

Coastal Marine Forecast

       Alabama   Florida   Louisiana   Mississippi

Printer Friendly AL  FL  LA  MS

Data Buoys:   Western Gulf of Mexico    Eastern Gulf of Mexico
**********************************************************************
  Alabama
1200 AM CST TUE JAN 24 2017

ALZ051>064-240700-
SOUTHWEST ALABAMA
  
CITY           SKY/WX    TMP DP  RH WIND       PRES   REMARKS
MOBILE         CLEAR     51  45  79 NW5       29.87S                  
6HR MIN TEMP:  51; 6HR MAX TEMP:  62;                                

BROOKLEY FIELD CLEAR     52  47  83 NW7       29.88S                  
6HR MIN TEMP:  52; 6HR MAX TEMP:  64;                                

EVERGREEN      CLEAR     50  42  74 VRB3      29.85R                  
6HR MIN TEMP:  50; 6HR MAX TEMP:  61;                                

**********************************************************************
  Florida
100 AM EST TUE JAN 24 2017

FLZ001>010-012>015-112-114-115-240700-
PANHANDLE FLORIDA
  
CITY           SKY/WX    TMP DP  RH WIND       PRES   REMARKS
PENSACOLA      CLEAR     55  47  74 NW8       29.84F                  
PENSACOLA NAS  CLEAR     55  47  74 NW5       29.85S                  
MILTON NAS     LGT RAIN  50  46  86 NW6       29.84                   
CRESTVIEW      CLEAR     53  44  71 NW7       29.85R                  
DUKE FIELD     CLEAR     53  45  73 NW6       29.83R                  
VALPARAISO     CLEAR     51  46  83 NW6       29.84S                  
MARY ESTHER    CLEAR     55  41  59 NW6       29.83S                  
PANAMA CITY    FAIR      56  48  74 W10       29.82R                  
TYNDALL AFB    CLEAR     58  49  71 NW13      29.82S                  
APALACHICOLA   CLEAR     58  50  75 NW7       29.81R                  

STATION/POSITION SKY/WX   TEMP    WIND        PRES    WAVE   SWELL
                          AIR SEA DIR/SP/G            HT/PER HT/PER
                          (F)     (DEG/KT/KT) (MB)    (FT/S) (FT/S)
30.1N   87.6W              63 65  310/ 16/ 17 1010.6    4/ 5   2/ 7
28.8N   86.0W              70 74              1010.7   10/ 8   7/ 8
PANAMA CITY BEAC           60 65  310/ 11/ 14 1010.2R
TOWER C                    65     320/ 27/ 28 1009.3F
28.5N   84.5W              70 70  310/ 21/ 25 1009.1S  11/11   7/11

**********************************************************************
  Louisiana
1100 PM CST MON JAN 23 2017

LAZ040-048-061>063-065-066-069-240600-
SOUTHEAST LOUISIANA
  
CITY           SKY/WX    TMP DP  RH WIND       PRES   REMARKS
N.O. AUDUBON   NOT AVBL                                               
N.O. INTL ARPT CLEAR     53  45  74 SW5       29.90R                  
N.O. LAKEFRONT CLEAR     60  53  77 W8        29.90R                  
N.O. DOWNTOWN*   N/A     58  45  62 CALM      29.91R                  
RESERVE*       NOT AVBL                                               
SLIDELL        CLEAR     49  46  90 CALM      29.89S                  
BATON ROUGE    CLEAR     49  45  86 CALM      29.89S                  
BOOTHVILLE     CLEAR     54  52  93 W7        29.90S                  
BELLE CHASSE   CLEAR     48  46  93 CALM      29.90R                  
BOGALUSA*      FAIR      47  44  89 CALM      29.90S                  
GALLIANO*      CLEAR     49  47  90 CALM      29.91R                  
NEW ROADS*     FAIR      48  46  93 CALM      29.90S                  
GONZALES*      FAIR      50  44  80 CALM      29.89S                  
HAMMOND*       CLEAR     46  43  87 CALM      29.90S                  
HOUMA*         CLEAR     47  47  99 CALM      29.91S                  
PORT FOURCHON* CLEAR     61  50  67 NW5       29.90F                  

**********************************************************************
  Mississippi
1200 AM CST TUE JAN 24 2017

MSZ080>082-240700-
COASTAL MISSISSIPPI
  
CITY           SKY/WX    TMP DP  RH WIND       PRES   REMARKS
BILOXI         CLEAR     53  47  82 NW3       29.87F                  
6HR MIN TEMP:  53; 6HR MAX TEMP:  63;                                

PASCAGOULA     CLEAR     47  45  93 W3        29.88R                  
6HR MIN TEMP:  47; 6HR MAX TEMP:  63;                                

GULFPORT       CLEAR     50  46  86 W3        29.88S                  
6HR MIN TEMP:  50; 6HR MAX TEMP:  62;                                

About Us | Coastal Marine Forecast | Offshore Marine Forecast
Gulf Coast Tides | Hourly Weather Observations | Weather Radar
Sea Surface Temperatures | Solar/Lunar Data | Hurricane Advisories | Home
     
USA Logo Dr. Bill's Marine Weather
Last date changed: December 9, 2014 4:08 PM
www.gulfmarineweather.com/hourlyweatherobservations.shtml
Contact Us